Simultaneous Nadir Overpasses (SNOs) Predictions

Prediction of SNOs between GOES-16 and AQUA Satellite Orbit:

Table of predicted SNOs for the next 14.0 days since TLE Epoch: 3/13/2021
Index Date Time (GOES-16) GOES-16 Lat,Lon AQUA Lat,Lon Distance(km) Time Diff (sec)
1 03/13/2021 06:29:32 -0.04, -75.19 -0.32, -73.86 151.07 80
2 03/13/2021 18:50:56 0.04, -75.20 -0.78, -79.06 438.88 80
3 03/15/2021 06:17:21 -0.04, -75.20 -0.96, -70.91 488.04 80
4 03/15/2021 18:38:45 0.04, -75.21 -0.14, -76.10 101.70 80
5 03/17/2021 18:29:13 0.04, -75.22 0.45, -73.14 235.98 80
6 03/18/2021 06:50:29 -0.04, -75.23 0.63, -78.30 349.83 80
7 03/20/2021 06:38:18 -0.03, -75.24 -0.03, -75.35 11.91 80
8 03/22/2021 06:23:26 -0.03, -75.26 -0.63, -72.39 326.57 80
9 03/22/2021 18:44:50 0.03, -75.26 -0.47, -77.58 263.37 80
10 03/24/2021 18:35:18 0.02, -75.29 0.14, -74.62 75.72 80
11 03/26/2021 18:23:07 0.01, -75.32 0.81, -71.67 415.27 80
